Laconia, NH

4:04 AM EDT on April 26, 2017 (GMT -0400)
Laconia Municipal

Weather History for KLCI - November, 2013

Change the Weather History Date:

Thursday, November 28, 2013

  Actual Average Record
Temperature  
Mean Temperature 27 °F -  
Max Temperature 35 °F 40 °F 57 °F (2015)
Min Temperature 19 °F 26 °F 10 °F (1996)
Degree Days  
Heating Degree Days 38    
Moisture  
Dew Point 10 °F    
Average Humidity 50    
Maximum Humidity 75    
Minimum Humidity 34    
Precipitation  
Precipitation 0.00 in - - ()
Sea Level Pressure  
Sea Level Pressure 29.98 in    
Wind  
Wind Speed 12 mph (West)    
Max Wind Speed 21 mph    
Max Gust Speed 34 mph    
Visibility 10 miles    
Events      
Averages and records for this station are not official NWS values.
T = Trace of Precipitation, MM = Missing Value Source: NWS Daily Summary

Daily Weather History Graph

Daily Weather History Graph

Search for Another Location

Airport or City:

Trip Planner

Search our weather history database for the weather conditions in past years. The results will help you decide how hot, cold, wet, or windy it might be!

Date:

Astronomy

Nov. 28, 2013 Rise Set
Actual Time 6:55 AM EST 4:11 PM EST
Civil Twilight 6:23 AM EST 4:43 PM EST
Nautical Twilight 5:48 AM EST 5:18 PM EST
Astronomical Twilight 5:13 AM EST 5:53 PM EST
Moon 1:47 AM EST (11/28) 1:26 PM EST (11/28)
Length of Visible Light 10h 19m
Length of Day
9h 15m
Waning Crescent, 22% of the Moon is Illuminated
Nov 28
Waning Crescent
Dec 2
New
Dec 9
First Quarter
Dec 17
Full
Dec 25
Last Quarter

Hourly Weather History & Observations

Time (EST) Temp. Windchill Dew Point Humidity Pressure Visibility Wind Dir Wind Speed Gust Speed Precip Events Conditions
12:15 AM 35.6 °F 26.2 °F 24.8 °F 65% 29.40 in 10.0 mi WSW 15.0 mph 21.9 mph N/A   Overcast
12:35 AM 33.8 °F 26.4 °F 24.8 °F 70% 29.42 in 10.0 mi West 9.2 mph 20.7 mph N/A   Overcast
12:55 AM 33.8 °F 25.3 °F 26.6 °F 75% 29.44 in 10.0 mi West 11.5 mph 21.9 mph N/A   Overcast
1:15 AM 33.8 °F 27.0 °F 26.6 °F 75% 29.45 in 10.0 mi West 8.1 mph - N/A   Overcast
1:35 AM 33.8 °F 24.8 °F 24.8 °F 70% 29.47 in 10.0 mi West 12.7 mph 18.4 mph N/A   Overcast
1:55 AM 33.8 °F 24.8 °F 23.0 °F 65% 29.49 in 10.0 mi West 12.7 mph 21.9 mph N/A   Overcast
2:15 AM 33.8 °F 23.9 °F 24.8 °F 70% 29.51 in 10.0 mi West 15.0 mph 23.0 mph N/A   Mostly Cloudy
2:35 AM 33.8 °F 23.5 °F 23.0 °F 65% 29.52 in 10.0 mi West 16.1 mph 24.2 mph N/A   Mostly Cloudy
2:55 AM 33.8 °F 24.3 °F 23.0 °F 65% 29.53 in 10.0 mi West 13.8 mph 19.6 mph N/A   Partly Cloudy
3:15 AM 32.0 °F 22.5 °F 21.2 °F 64% 29.54 in 10.0 mi West 12.7 mph 18.4 mph N/A   Scattered Clouds
3:35 AM 32.0 °F 21.6 °F 21.2 °F 64% 29.55 in 10.0 mi West 15.0 mph 29.9 mph N/A   Mostly Cloudy
3:55 AM 32.0 °F 19.8 °F 21.2 °F 64% 29.57 in 10.0 mi West 20.7 mph 27.6 mph N/A   Overcast
4:15 AM 32.0 °F 21.6 °F 19.4 °F 60% 29.59 in 10.0 mi West 15.0 mph 27.6 mph N/A   Overcast
4:35 AM 32.0 °F 23.6 °F 19.4 °F 60% 29.60 in 10.0 mi West 10.4 mph 20.7 mph N/A   Mostly Cloudy
4:55 AM 30.2 °F 20.8 °F 19.4 °F 64% 29.63 in 10.0 mi West 11.5 mph 18.4 mph N/A   Mostly Cloudy
5:15 AM 30.2 °F 19.8 °F 21.2 °F 69% 29.65 in 10.0 mi WSW 13.8 mph 19.6 mph N/A   Overcast
5:35 AM 30.2 °F 18.1 °F 19.4 °F 64% 29.69 in 10.0 mi WSW 18.4 mph 24.2 mph N/A   Overcast
5:55 AM 28.4 °F 17.0 °F 17.6 °F 64% 29.72 in 10.0 mi West 15.0 mph 27.6 mph N/A   Overcast
6:15 AM 28.4 °F 18.0 °F 15.8 °F 59% 29.75 in 10.0 mi West 12.7 mph 23.0 mph N/A   Overcast
6:35 AM 26.6 °F 14.3 °F 14.0 °F 59% 29.76 in 10.0 mi WSW 16.1 mph 31.1 mph N/A   Overcast
6:55 AM 26.6 °F 16.2 °F 14.0 °F 59% 29.79 in 10.0 mi West 11.5 mph 25.3 mph N/A   Overcast
7:15 AM 26.6 °F 14.3 °F 12.2 °F 55% 29.81 in 10.0 mi West 16.1 mph 28.8 mph N/A   Overcast
7:35 AM 24.8 °F 13.4 °F 12.2 °F 59% 29.83 in 10.0 mi West 12.7 mph 27.6 mph N/A   Overcast
7:55 AM 24.8 °F 12.9 °F 10.4 °F 54% 29.85 in 10.0 mi West 13.8 mph 26.5 mph N/A   Mostly Cloudy
8:15 AM 24.8 °F 14.6 °F 10.4 °F 54% 29.87 in 10.0 mi West 10.4 mph 19.6 mph N/A   Scattered Clouds
8:35 AM 24.8 °F 12.4 °F 10.4 °F 54% 29.89 in 10.0 mi WSW 15.0 mph 21.9 mph N/A   Scattered Clouds
8:55 AM 24.8 °F 12.4 °F 10.4 °F 54% 29.90 in 10.0 mi West 15.0 mph 27.6 mph N/A   Scattered Clouds
9:15 AM 24.8 °F 10.7 °F 10.4 °F 54% 29.93 in 10.0 mi West 19.6 mph 34.5 mph N/A   Partly Cloudy
9:35 AM 26.6 °F 14.7 °F 10.4 °F 51% 29.95 in 10.0 mi West 15.0 mph 26.5 mph N/A   Clear
9:55 AM 26.6 °F 14.3 °F 10.4 °F 51% 29.97 in 10.0 mi West 16.1 mph 27.6 mph N/A   Clear
10:15 AM 26.6 °F 14.7 °F 10.4 °F 51% 29.98 in 10.0 mi West 15.0 mph 31.1 mph N/A   Partly Cloudy
10:35 AM 26.6 °F 13.8 °F 8.6 °F 47% 29.98 in 10.0 mi West 17.3 mph 28.8 mph N/A   Clear
10:55 AM 26.6 °F 13.4 °F 6.8 °F 43% 29.99 in 10.0 mi West 18.4 mph 33.4 mph N/A   Clear
11:15 AM 26.6 °F 13.1 °F 6.8 °F 43% 30.01 in 10.0 mi West 19.6 mph 29.9 mph N/A   Partly Cloudy
11:35 AM 26.6 °F 14.7 °F 8.6 °F 47% 30.03 in 10.0 mi NW 15.0 mph 21.9 mph N/A   Scattered Clouds
11:55 AM 26.6 °F 16.8 °F 3.2 °F 37% 30.03 in 10.0 mi West 10.4 mph 32.2 mph N/A   Clear
12:15 PM 26.6 °F 14.7 °F 5.0 °F 40% 30.05 in 10.0 mi WNW 15.0 mph 21.9 mph N/A   Partly Cloudy
12:35 PM 26.6 °F 15.2 °F 5.0 °F 40% 30.05 in 10.0 mi West 13.8 mph 27.6 mph N/A   Clear
12:55 PM 26.6 °F 13.1 °F 3.2 °F 37% 30.07 in 10.0 mi West 19.6 mph 26.5 mph N/A   Clear
1:15 PM 26.6 °F 15.7 °F 3.2 °F 37% 30.07 in 10.0 mi West 12.7 mph 26.5 mph N/A   Clear
1:35 PM 26.6 °F 13.4 °F 3.2 °F 37% 30.07 in 10.0 mi West 18.4 mph 27.6 mph N/A   Clear
1:55 PM 26.6 °F 14.7 °F 3.2 °F 37% 30.09 in 10.0 mi West 15.0 mph 28.8 mph N/A   Clear
2:15 PM 26.6 °F 15.7 °F 3.2 °F 37% 30.10 in 10.0 mi West 12.7 mph 27.6 mph N/A   Clear
2:35 PM 26.6 °F 14.3 °F 1.4 °F 34% 30.11 in 10.0 mi West 16.1 mph 27.6 mph N/A   Clear
2:55 PM 26.6 °F 16.2 °F 3.2 °F 37% 30.13 in 10.0 mi West 11.5 mph 24.2 mph N/A   Clear
3:15 PM 26.6 °F 15.2 °F 3.2 °F 37% 30.14 in 10.0 mi West 13.8 mph 20.7 mph N/A   Clear
3:35 PM 26.6 °F 15.7 °F 3.2 °F 37% 30.15 in 10.0 mi West 12.7 mph 25.3 mph N/A   Scattered Clouds
3:55 PM 26.6 °F 19.1 °F 1.4 °F 34% 30.16 in 10.0 mi West 6.9 mph 19.6 mph N/A   Partly Cloudy
4:15 PM 24.8 °F 14.6 °F 1.4 °F 36% 30.18 in 10.0 mi West 10.4 mph - N/A   Clear
4:35 PM 24.8 °F 15.3 °F 1.4 °F 36% 30.19 in 10.0 mi West 9.2 mph - N/A   Clear
4:55 PM 24.8 °F 16.1 °F 1.4 °F 36% 30.20 in 10.0 mi West 8.1 mph 19.6 mph N/A   Clear
5:15 PM 24.8 °F 16.9 °F 1.4 °F 36% 30.21 in 10.0 mi West 6.9 mph 18.4 mph N/A   Clear
5:35 PM 24.8 °F 16.9 °F 1.4 °F 36% 30.23 in 10.0 mi WSW 6.9 mph - N/A   Clear
5:55 PM 24.8 °F 14.6 °F 1.4 °F 36% 30.24 in 10.0 mi WSW 10.4 mph - N/A   Clear
6:15 PM 24.8 °F 14.6 °F 1.4 °F 36% 30.25 in 10.0 mi West 10.4 mph 18.4 mph N/A   Clear
6:35 PM 24.8 °F - 1.4 °F 36% 30.27 in 10.0 mi Calm Calm - N/A   Clear
6:55 PM 23.0 °F 17.0 °F 1.4 °F 39% 30.28 in 10.0 mi NW 4.6 mph - N/A   Clear
7:15 PM 21.2 °F 14.9 °F 3.2 °F 46% 30.29 in 10.0 mi WNW 4.6 mph - N/A   Clear
7:35 PM 21.2 °F 13.6 °F 3.2 °F 46% 30.30 in 10.0 mi West 5.8 mph - N/A   Clear
7:55 PM 21.2 °F 13.6 °F 3.2 °F 46% 30.31 in 10.0 mi West 5.8 mph - N/A   Clear
8:15 PM 21.2 °F 16.4 °F 3.2 °F 46% 30.31 in 10.0 mi West 3.5 mph - N/A   Clear
8:35 PM 21.2 °F 16.4 °F 3.2 °F 46% 30.33 in 10.0 mi WNW 3.5 mph - N/A   Clear
8:55 PM 21.2 °F 14.9 °F 3.2 °F 46% 30.33 in 10.0 mi West 4.6 mph - N/A   Clear
9:15 PM 21.2 °F 13.6 °F 3.2 °F 46% 30.34 in 10.0 mi West 5.8 mph - N/A   Clear
9:35 PM 21.2 °F 12.6 °F 3.2 °F 46% 30.35 in 10.0 mi West 6.9 mph - N/A   Clear
9:55 PM 19.4 °F 11.5 °F 5.0 °F 54% 30.35 in 10.0 mi WSW 5.8 mph - N/A   Clear
10:15 PM 19.4 °F 12.8 °F 5.0 °F 54% 30.36 in 10.0 mi West 4.6 mph - N/A   Clear
10:35 PM 19.4 °F 11.5 °F 3.2 °F 49% 30.37 in 10.0 mi West 5.8 mph - N/A   Clear
10:55 PM 19.4 °F 12.8 °F 3.2 °F 49% 30.37 in 10.0 mi WSW 4.6 mph - N/A   Clear
11:15 PM 19.4 °F 9.5 °F 5.0 °F 54% 30.38 in 10.0 mi WSW 8.1 mph - N/A   Clear
11:35 PM 19.4 °F 12.8 °F 5.0 °F 54% 30.38 in 10.0 mi WSW 4.6 mph - N/A   Partly Cloudy
11:55 PM 19.4 °F 12.8 °F 5.0 °F 54% 30.38 in 10.0 mi West 4.6 mph - N/A   Clear